Meath Environmental Platform

Observations for Trim Market St

Time AQI Temp °C Hum % Pres Pa CO μg/m³ H₂S μg/m³ NO μg/m³ NO₂ μg/m³ O₃ μg/m³ SO₂ μg/m³ PM1 μg/m³ PM2.5 μg/m³ PM10 μg/m³
Saturday 11 July 2026
11:45 1 38.2 28 66,752 0 0 0 0 0 2.45 0 3.93 4.32
11:44 1 38.1 28 66,729 0 0 0 2.97 29.08 1.9 0 3.92 4.32
11:41 1 38 28 66,681 0 0 0 0 17.65 2.76 0.71 4.47 4.92
11:35 1 37.8 28 66,667 0 0 0 0 7.06 2.32 0 3.4 3.74
11:33 1 37.9 28 66,748 0 0 0 5.13 28.27 1.36 0.71 3.93 4.32
11:32 1 37.9 28 66,729 0 0 0 0 31.16 2.18 0 3.92 4.32
11:31 1 37.8 28 66,702 0 0 0 0 29.25 2.4 0.71 4.47 4.92
11:24 1 37.4 29 66,675 0.14 0 0 0 0 2.07 0.71 3.91 4.3
11:23 1 37.3 29 66,663 0 0 0 13.52 34.61 0.24 0.71 3.9 4.29
11:22 1 37.3 29 66,645 0 0 0 0 18.12 1.31 1.43 3.89 4.28
11:21 1 37.2 29 66,621 0 0 0 0 10.67 1.16 0.71 3.89 4.28
11:20 1 37.1 29 66,621 0 0 0 7.14 32.44 0.5 0 3.34 3.67
11:19 1 37 29 66,600 0 0 0 0.45 28.27 0.54 0.71 3.88 4.27
11:18 1 36.9 30 66,600 0 0 0 0 29.64 0.62 0 3.33 3.66
11:17 1 36.9 30 66,606 0 0 0 4.16 7.33 0.91 0.71 3.33 3.66
11:16 1 36.8 30 66,578 0.04 0 0 0 34.94 1.55 1.43 4.41 4.86
11:15 1 36.7 30 66,578 0 0 0 7.02 44.02 0.69 1.43 4.42 6.66
11:14 1 36.7 29 66,578 0 0 0 3.64 43.44 0.82 0.71 3.88 4.27
11:13 1 36.7 29 66,552 0 0 0 0 25.14 1.15 0 3.34 3.67
11:12 1 36.7 29 66,578 0 0 0 0 29.12 0.51 0 3.34 3.67